Lapse_Rate
6.9 6.9 7.0 7.6 7.7 8.1 7.8 7.6 7.7 7.5 7.2 7.2 6.8 6.0 5.9 5.7 5.5 5.6 6.2 5.9 5.4 5.4 5.8 6.4 6.3 6.1 6.1 5.8 5.7 5.8 6.0 6.2 6.2 6.0 6.0 6.2 6.1 6.0 5.8 5.7 5.8 6.0 6.1 6.3
6.5 6.3 7.0 7.7 7.7 8.0 7.7 7.7 7.7 7.5 7.3 7.3 6.6 6.7 6.0 5.8 6.1 6.2 6.2 6.0 5.9 5.4 5.7 6.0 6.0 5.9 6.0 5.8 5.5 5.5 5.8 6.1 6.1 6.2 6.1 6.2 6.0 6.1 5.8 6.0 5.9 5.9 5.9 6.2
6.3 6.5 7.0 7.7 7.6 7.9 7.8 7.9 7.7 7.4 7.5 7.8 7.7 7.1 6.4 7.5 6.8 6.3 6.3 6.2 6.0 5.7 5.5 6.2 6.0 5.9 5.8 5.9 5.7 5.5 5.5 5.8 6.1 6.1 6.4 6.3 6.0 6.1 6.1 6.0 5.9 5.8 5.8 5.9
6.2 6.8 6.7 7.5 7.6 7.9 7.8 8.2 7.7 7.5 7.7 7.3 7.8 7.6 7.5 7.2 7.7 7.2 6.6 6.6 5.8 5.6 5.3 5.4 5.8 6.0 6.2 5.6 5.7 5.5 5.4 5.4 5.9 6.1 6.2 6.1 6.1 6.4 6.2 6.1 5.9 5.9 5.9 5.8
6.0 6.5 6.4 6.9 7.3 7.8 8.4 8.0 7.9 7.5 7.9 7.8 7.6 7.4 8.0 7.4 7.5 7.4 7.0 6.8 6.4 6.3 5.9 6.1 6.0 6.2 6.3 5.8 5.9 5.7 5.3 5.2 5.5 6.0 5.9 5.7 6.2 5.9 6.1 6.1 5.9 5.9 5.9 5.7
6.3 6.6 6.7 6.7 7.2 7.6 8.1 7.8 7.9 7.6 7.3 6.6 8.0 7.6 7.9 8.1 8.6 8.2 7.7 7.4 7.1 6.4 6.2 6.0 6.4 5.7 6.1 5.7 5.7 6.2 5.8 5.3 5.5 5.7 5.7 5.8 5.7 5.9 6.2 6.0 5.9 5.8 5.7 5.6
6.1 6.4 6.6 6.7 7.0 7.5 7.8 7.9 7.9 6.9 6.4 6.1 7.8 7.4 7.6 8.6 8.4 8.7 8.4 7.9 7.7 6.9 6.6 6.5 6.8 7.0 5.8 5.8 5.8 6.3 6.2 5.9 5.6 5.7 5.7 5.8 5.7 5.8 5.9 6.2 5.9 5.9 5.6 5.6
6.2 6.2 6.3 6.6 6.8 7.3 7.8 7.9 7.9 6.9 6.0 7.1 7.7 6.9 7.9 8.7 8.7 8.7 8.6 8.4 7.9 7.6 7.5 7.5 7.4 7.2 6.3 6.1 6.2 6.3 6.4 6.2 6.1 5.8 5.7 5.7 5.6 5.8 5.9 6.0 5.9 5.8 5.7 5.6
6.5 6.4 6.7 6.9 7.2 7.5 7.7 7.6 8.1 8.1 7.6 7.1 7.6 7.6 8.3 8.4 8.5 8.6 8.5 8.4 8.1 8.3 8.2 7.7 7.6 6.9 6.6 6.3 6.5 6.7 6.4 6.3 6.2 6.0 5.8 5.9 5.6 5.6 6.0 6.0 5.9 5.8 5.9 6.1
7.1 7.2 7.0 7.2 7.6 7.8 7.7 7.8 8.3 8.2 6.8 6.4 7.6 7.4 8.3 8.5 8.9 9.0 8.5 8.2 8.3 8.0 8.1 8.1 7.8 7.4 6.9 6.6 6.5 6.5 6.4 6.3 6.2 6.1 5.9 5.8 5.9 5.7 5.6 5.8 6.0 6.0 6.1 6.3
7.3 7.6 7.5 7.5 7.4 7.5 7.7 7.8 8.0 8.4 8.4 6.9 5.8 7.5 8.2 8.3 8.4 8.5 8.5 8.3 8.4 8.0 8.0 8.1 8.1 7.9 7.4 6.9 6.8 6.5 6.3 6.6 6.5 6.6 6.2 6.0 6.1 5.9 5.9 5.8 5.8 6.0 6.1 6.4
8.1 7.7 7.5 7.5 7.7 7.9 8.0 7.8 8.1 8.4 8.3 8.4 8.1 8.4 9.0 8.6 8.6 8.4 8.1 8.2 7.9 7.8 7.6 7.6 7.5 7.6 7.5 7.2 7.1 7.2 6.5 6.3 6.6 6.3 6.4 6.4 6.1 5.8 6.0 6.1 5.9 6.0 6.1 6.1
7.9 7.8 7.9 7.8 7.8 7.9 7.7 8.0 8.2 8.5 8.5 8.7 7.9 8.3 8.8 8.8 8.4 8.4 8.2 8.1 8.1 8.1 8.1 7.8 7.7 7.8 8.1 7.7 7.2 7.0 7.1 6.7 6.4 6.0 6.1 6.2 6.4 6.1 6.1 6.2 6.3 6.1 6.2 6.3
8.0 7.8 8.0 7.4 7.9 8.0 7.8 8.1 8.2 8.5 8.5 8.6 8.9 8.9 8.5 8.8 8.3 8.0 8.1 8.1 8.3 8.2 8.7 8.3 8.3 8.2 8.0 8.0 7.5 7.4 7.1 6.8 6.6 6.3 6.0 6.1 6.2 6.3 6.3 6.3 6.3 6.4 6.2 6.2
8.3 8.2 8.3 8.4 8.6 8.1 8.1 8.1 8.1 8.2 8.5 8.6 9.0 9.1 8.5 8.7 8.7 8.2 7.8 7.8 8.0 8.1 8.0 8.1 8.3 8.2 8.4 8.3 7.8 7.3 7.2 7.0 6.9 6.7 6.3 6.4 6.2 6.2 6.1 6.2 6.2 6.3 6.4 6.4
8.4 8.4 8.7 8.7 8.4 8.3 8.3 8.4 8.4 8.4 8.6 8.7 9.0 9.2 8.6 8.4 8.7 8.6 7.9 7.6 7.9 7.8 8.0 8.2 7.9 7.8 8.1 8.1 7.7 7.5 7.5 7.2 6.9 6.7 6.9 6.2 6.0 5.9 6.2 6.1 6.3 6.0 6.3 6.5
8.3 8.3 8.6 8.8 8.8 8.5 8.5 8.5 8.5 8.7 8.7 8.9 8.9 9.3 9.0 8.2 8.5 8.7 8.3 7.6 7.4 7.3 7.1 7.4 7.6 7.8 7.6 7.2 7.5 7.6 7.8 7.6 7.3 7.2 7.0 6.3 6.1 6.1 5.8 5.8 5.9 6.4 6.2 6.3
8.2 8.3 8.5 8.8 8.9 8.0 7.2 8.0 8.0 8.0 8.3 8.5 8.4 8.9 9.1 8.3 8.0 8.6 8.7 8.5 8.3 7.9 7.8 7.7 7.6 7.7 7.8 7.6 7.7 7.6 7.4 7.3 7.4 7.3 7.0 6.6 6.2 6.2 6.1 5.9 5.8 5.8 6.1 6.2
8.4 8.3 8.6 8.6 8.2 7.4 6.9 7.1 7.4 7.8 7.0 6.7 7.2 7.1 8.3 8.3 7.9 8.3 8.3 7.9 8.1 8.1 7.8 7.6 7.4 7.6 7.6 7.5 7.5 7.6 7.5 7.6 7.7 7.8 7.7 7.2 6.9 6.6 6.3 6.3 6.2 6.2 5.8 5.8
8.5 8.4 8.7 8.5 8.1 7.3 7.0 7.0 7.2 7.9 6.8 6.3 6.8 7.9 7.6 7.8 7.7 7.8 7.9 7.9 7.4 7.6 7.5 7.7 7.9 7.8 7.6 7.7 7.3 7.3 7.5 7.8 7.8 7.7 7.9 7.4 7.5 7.7 7.1 7.0 7.0 6.9 6.1 5.9
8.7 8.6 8.6 8.3 7.6 7.3 7.4 7.5 7.4 7.5 6.8 6.9 6.5 6.6 7.3 7.4 7.7 7.7 7.3 7.7 7.2 7.0 7.4 7.6 7.8 7.8 7.6 7.5 7.4 7.3 7.2 7.5 7.8 8.0 8.0 7.6 7.6 8.0 8.0 7.6 7.1 6.8 6.9 6.6
8.4 8.3 8.3 8.3 7.8 7.1 7.8 7.5 7.5 7.6 6.8 6.7 6.8 6.6 7.1 6.9 7.2 7.5 7.2 6.6 6.7 6.7 6.8 7.0 7.5 7.8 8.1 7.9 7.8 7.5 7.6 7.6 7.8 7.9 8.2 7.8 8.0 8.0 8.2 8.2 8.1 7.4 7.1 7.0
7.6 7.9 7.3 7.2 6.7 6.7 7.5 7.2 6.7 6.7 6.8 6.5 6.9 6.8 6.2 6.1 6.0 6.0 6.3 6.6 6.9 7.0 7.1 7.1 7.2 7.6 7.9 7.9 7.7 7.8 7.4 7.6 7.8 7.8 8.0 8.1 8.2 8.1 8.1 8.4 8.3 8.0 7.8 7.5
7.0 6.8 6.8 7.0 6.8 6.7 6.8 6.6 7.4 6.9 6.6 6.4 6.4 6.4 6.5 5.8 5.7 5.9 6.1 6.4 6.6 6.5 6.7 6.8 7.0 7.2 7.5 7.5 7.7 7.7 7.6 7.8 7.7 7.8 7.8 8.0 8.0 8.0 8.2 8.2 8.2 8.3 8.1 8.2
6.9 6.8 7.2 7.2 7.0 7.1 6.8 6.7 6.4 6.5 6.9 7.0 7.0 6.5 6.4 5.5 5.7 6.1 5.9 6.2 5.9 5.8 5.6 6.6 6.4 6.8 7.4 7.7 7.9 7.7 7.6 7.6 7.5 7.5 7.5 7.5 7.5 7.5 7.6 7.8 7.9 8.1 8.2 7.8
6.7 6.7 6.8 6.7 6.8 7.1 6.6 6.4 6.3 6.4 6.3 6.7 6.8 7.0 7.1 5.3 5.0 5.6 5.9 6.2 6.1 6.1 6.4 6.5 7.2 6.6 7.4 7.7 7.6 7.7 8.1 7.5 7.5 7.1 7.2 7.5 7.5 7.5 7.3 7.3 7.7 7.7 8.0 7.9
Wind_Speed
2 3 5 8 5 5 3 1 6 2 5 3 4 6 10 10 5 6 7 11 14 12 13 13 14 14 14 12 10 9 8 6 4 2 2 1 2 2 2 5 4 12 12 10
2 4 9 4 4 4 3 3 4 1 5 3 6 7 5 10 10 8 9 10 14 9 13 14 15 14 16 15 12 8 8 7 4 3 2 2 3 2 1 1 2 5 8 14
7 6 8 5 3 4 3 4 3 2 3 2 4 4 6 8 7 13 13 12 13 15 15 17 16 16 15 14 13 11 8 8 6 5 3 2 4 3 2 1 1 2 9 13
5 5 5 5 5 7 5 7 8 6 5 4 2 3 5 7 14 14 16 10 13 14 17 17 18 17 17 16 13 12 10 8 7 7 4 5 4 4 3 3 2 3 6 10
8 7 8 9 6 7 10 7 6 6 5 3 1 3 6 3 8 10 13 13 12 14 18 20 21 21 20 15 14 12 11 8 6 7 5 4 4 3 2 2 3 1 1 6
8 2 6 9 7 7 3 2 2 4 3 2 6 5 6 6 13 16 14 17 17 14 19 19 20 20 18 15 15 13 14 10 8 9 7 7 7 5 4 3 4 3 2 1
0 4 4 2 4 2 5 5 2 2 0 6 6 3 13 8 6 13 17 14 16 16 17 19 19 18 17 17 17 14 16 13 9 10 9 7 8 8 8 7 5 5 3 2
7 8 7 3 8 7 6 9 6 6 4 4 6 6 8 8 15 13 16 15 12 16 16 21 23 21 21 20 19 18 17 15 12 10 9 7 6 5 5 7 4 4 4 4
5 5 4 7 4 11 4 5 9 5 1 2 5 7 9 5 9 11 15 14 17 17 18 22 22 21 20 20 20 20 18 16 12 12 9 9 6 6 7 8 5 5 4 4
9 1 4 4 5 3 7 6 4 2 6 5 5 5 5 5 2 3 8 15 13 13 16 15 18 19 17 16 18 18 18 18 13 9 9 8 9 7 6 7 8 6 6 5
5 5 6 4 4 8 3 3 3 5 4 6 2 7 7 8 8 7 8 8 6 8 12 13 16 14 13 12 11 12 15 16 14 12 10 9 9 9 7 6 6 7 6 6
2 6 5 9 2 4 8 9 8 5 5 2 4 7 5 3 4 11 8 9 6 8 9 8 7 14 13 13 14 15 12 14 14 13 10 10 8 10 8 7 7 7 7 6
2 1 1 9 6 3 5 5 5 4 3 8 5 6 8 6 6 6 15 8 7 5 6 6 6 5 15 18 13 15 13 13 13 11 11 9 8 10 11 9 7 7 7 7
5 4 6 10 7 5 3 4 5 6 4 5 7 5 3 8 7 4 9 8 7 5 5 10 8 2 15 14 16 15 14 11 9 11 12 12 12 12 12 11 9 8 7 7
4 2 2 3 4 4 4 4 1 5 4 7 8 10 4 12 14 9 9 13 13 11 12 14 14 10 6 10 10 10 11 11 10 11 12 14 14 13 12 11 11 11 8 9
7 3 2 1 3 6 5 9 5 8 5 3 6 2 0 7 11 16 12 12 14 12 12 12 9 11 11 8 6 7 9 9 7 12 13 12 10 11 12 11 10 9 12 11
4 2 1 4 3 4 5 11 5 9 11 6 5 6 13 10 13 11 14 13 14 13 9 8 9 9 11 10 6 6 3 7 14 15 14 13 12 13 13 13 11 10 12 10
5 1 1 3 2 4 5 3 13 15 14 16 10 9 13 14 12 12 10 14 15 10 11 10 8 8 10 8 7 5 5 5 3 8 13 13 12 14 14 13 13 13 12 12
16 1 2 4 3 4 1 3 2 1 7 12 6 9 14 13 12 15 12 11 9 8 7 7 6 7 8 8 8 6 6 5 6 6 5 4 10 13 13 14 15 15 11 12
7 6 4 2 5 4 2 4 7 3 4 7 6 9 6 2 5 4 8 9 8 5 5 6 9 8 8 7 7 5 7 7 7 6 6 6 5 5 12 15 16 14 13 14
4 5 4 2 4 2 5 12 6 4 5 4 7 9 9 5 4 7 7 7 2 1 5 4 4 8 7 6 4 6 6 8 8 7 7 7 7 6 7 11 13 13 13 12
3 2 4 1 4 3 17 5 2 5 2 5 9 8 10 7 8 8 7 6 5 5 6 6 6 5 5 5 6 8 9 8 7 9 7 7 7 7 7 11 13 11 12 13
3 2 2 4 5 3 10 10 7 4 5 3 6 11 10 6 3 4 3 1 2 5 6 5 4 6 7 6 6 7 7 8 8 9 10 8 8 7 9 7 10 8 10 11
2 4 2 0 5 5 13 16 17 13 6 6 6 6 9 6 5 4 3 4 4 4 3 4 4 7 6 6 4 3 6 7 7 9 11 9 9 10 8 7 4 6 8 9
2 3 2 4 4 2 6 13 14 16 14 14 11 7 9 3 2 3 4 3 4 3 1 4 6 5 5 6 6 7 7 7 6 5 7 8 7 7 8 6 5 5 5 7
2 2 2 2 4 2 5 12 14 14 12 12 9 10 10 4 6 3 3 3 1 2 3 3 2 2 4 6 7 7 8 7 6 4 5 6 6 7 6 8 8 8 8 11
Wind_Direction
193 125 210 220 171 186 118 122 283 107 132 136 184 176 195 195 211 232 202 194 197 194 188 175 174 170 167 167 167 177 170 182 151 135 140 63 170 164 174 205 156 137 150 168
47 196 227 194 173 207 130 254 277 294 147 142 180 218 239 193 217 218 223 207 197 180 168 173 171 171 175 172 179 174 189 167 184 156 166 167 162 156 124 116 208 157 153 152
175 223 222 162 209 231 145 191 247 240 134 34 186 270 194 226 202 214 230 217 199 177 177 172 174 176 179 177 182 183 182 185 181 173 130 88 73 67 71 27 262 203 160 153
209 225 218 202 192 179 266 176 237 138 121 218 203 265 257 198 198 192 202 187 193 182 179 173 175 178 182 187 185 185 174 186 189 167 172 134 166 155 200 180 205 165 161 153
223 187 184 213 191 158 238 158 205 174 166 121 89 65 267 156 205 200 201 200 192 181 179 179 180 181 186 179 186 187 180 186 176 166 179 158 172 170 134 142 170 191 196 161
211 240 184 190 203 187 52 43 37 74 100 286 195 138 261 189 212 209 196 199 186 183 181 184 184 180 183 181 184 184 185 192 180 162 173 184 181 168 154 175 191 196 196 205
225 243 259 168 188 82 102 90 316 354 302 227 183 152 249 252 217 216 195 200 185 178 182 179 182 184 182 181 185 185 186 195 190 172 171 184 186 175 188 184 191 186 161 221
169 246 174 181 176 170 168 156 163 187 213 242 172 231 248 240 272 198 213 174 182 181 185 183 183 185 185 184 186 185 189 196 182 182 181 185 194 182 183 202 186 209 186 195
134 250 269 210 146 145 197 154 192 134 16 76 235 295 307 290 314 185 178 184 188 189 190 187 183 185 186 187 189 188 188 200 190 190 185 173 187 198 195 192 202 204 185 185
208 155 241 193 119 225 157 182 86 8 176 212 275 266 238 256 146 187 176 185 195 193 194 185 182 188 187 190 189 191 189 194 196 191 198 186 181 193 211 193 191 201 204 205
128 119 270 83 195 177 89 155 85 127 145 184 183 273 218 235 185 168 107 86 86 172 183 185 182 176 173 177 187 199 196 197 194 193 198 199 182 189 196 203 193 197 200 209
255 149 207 208 229 194 169 188 164 156 230 215 167 255 274 199 167 130 124 111 121 128 126 117 155 169 166 178 181 187 198 202 202 195 191 203 187 189 199 204 200 188 204 212
168 328 160 328 348 2 189 193 157 125 109 196 167 262 341 107 112 142 141 124 104 112 109 82 107 209 180 179 175 194 183 200 198 195 194 194 197 191 206 207 206 193 190 207
85 125 192 214 209 189 160 152 169 145 140 182 202 216 247 93 95 106 92 80 76 105 118 94 54 213 174 169 174 177 188 186 196 193 200 201 204 205 211 212 209 204 199 201
52 230 210 246 182 178 100 32 50 170 193 171 209 185 211 149 136 115 96 89 72 43 28 55 46 40 76 146 165 180 179 191 186 199 206 212 211 210 215 213 212 216 204 211
353 276 264 200 245 220 112 23 49 57 350 209 122 133 291 54 114 112 94 82 81 63 43 43 54 63 53 47 69 175 168 184 177 214 221 217 215 212 213 220 216 218 222 225
311 332 110 237 220 134 26 354 67 82 35 310 192 171 127 107 109 94 108 113 106 100 87 70 44 47 50 36 29 24 46 191 199 204 225 215 212 213 217 219 214 213 221 220
273 343 188 211 73 143 178 48 93 84 37 13 46 84 87 100 90 79 73 89 89 76 72 51 43 48 41 18 5 0 17 46 47 226 214 211 205 213 219 215 217 222 221 215
208 175 103 137 72 103 286 24 320 124 44 15 22 78 102 98 85 67 62 64 75 77 71 69 53 54 50 23 352 5 26 42 51 28 6 308 223 218 216 218 220 223 221 223
149 232 130 111 117 149 152 327 322 311 73 10 29 43 6 250 112 92 67 67 58 53 77 74 70 55 47 30 22 23 33 25 13 349 327 301 278 292 233 223 223 224 222 228
15 348 86 74 101 327 35 324 273 120 161 84 76 59 60 82 68 86 75 59 68 242 67 61 95 85 53 31 16 44 38 19 351 321 311 297 284 270 265 247 238 230 226 228
87 51 40 8 80 1 353 341 127 128 67 106 88 77 87 76 70 65 52 28 10 350 26 20 17 29 43 19 13 25 19 350 334 344 323 306 293 281 284 243 231 223 229 229
61 38 95 32 79 5 360 24 18 13 108 86 100 109 101 110 102 77 103 282 21 14 16 10 358 11 358 8 5 24 348 343 337 344 343 328 326 320 304 277 234 228 216 221
12 23 80 121 354 18 28 16 17 17 17 21 36 92 102 113 121 134 109 47 23 21 23 4 352 51 359 320 349 0 344 345 355 351 354 344 337 331 331 334 290 227 218 222
259 1 38 74 336 93 50 21 3 352 2 15 14 2 82 109 146 147 131 140 95 106 13 53 2 33 356 325 355 340 349 348 350 336 341 347 341 337 335 327 304 316 259 228
339 177 99 125 168 141 292 346 346 345 352 341 349 353 23 341 283 323 331 76 108 143 139 141 223 21 359 2 355 344 351 342 324 341 340 350 345 349 347 335 322 294 276 301